This is the latest recevied weather packets stored in our database for station/object 4S6DRJ-13. If no packets are shown the sender has not sent any weather packets the latest 10 day(s).
| Time | Temp. | Humidity | Pressure | Rain* | Wind** | Luminosity | Snow |
|---|---|---|---|---|---|---|---|
| 1788234293 | 30° C | 74% | 1009.6 hPa | 0 mm | 1.79 m/s, 241° | 1100 W/m² | - |
| 1788234232 | 30° C | 75% | 1009.5 hPa | 0 mm | 1.79 m/s, 252° | 950 W/m² | - |
| 1788234171 | 30° C | 75% | 1009.5 hPa | 0 mm | 2.68 m/s, 236° | 781 W/m² | - |
| 1788234110 | 30° C | 76% | 1009.5 hPa | 0 mm | 1.34 m/s, 261° | 450 W/m² | - |
| 1788234050 | 30° C | 76% | 1009.6 hPa | 0 mm | 1.34 m/s, 23° | 834 W/m² | - |
| 1788233988 | 29.44° C | 77% | 1009.5 hPa | 0 mm | 0.45 m/s, 152° | 802 W/m² | - |
| 1788233927 | 29.44° C | 76% | 1009.6 hPa | 0 mm | 1.34 m/s, 267° | 784 W/m² | - |
| 1788233866 | 29.44° C | 77% | 1009.6 hPa | 0 mm | 1.79 m/s, 191° | 778 W/m² | - |
| 1788233805 | 29.44° C | 77% | 1009.5 hPa | 0 mm | 1.79 m/s, 275° | 767 W/m² | - |
| 1788233746 | 29.44° C | 77% | 1009.6 hPa | 0 mm | 2.68 m/s, 293° | 757 W/m² | - |
| 1788233683 | 29.44° C | 77% | 1009.6 hPa | 0 mm | 1.34 m/s, 215° | 702 W/m² | - |
| 1788233622 | 29.44° C | 77% | 1009.5 hPa | 0 mm | 1.34 m/s, 237° | 647 W/m² | - |
| 1788233561 | 29.44° C | 78% | 1009.5 hPa | 0 mm | 2.68 m/s, 222° | 659 W/m² | - |
| 1788233500 | 29.44° C | 78% | 1009.5 hPa | 0 mm | 1.79 m/s, 279° | 427 W/m² | - |
| 1788233438 | 29.44° C | 78% | 1009.5 hPa | 0 mm | 0.89 m/s, 242° | 681 W/m² | - |
| 1788233377 | 29.44° C | 77% | 1009.5 hPa | 0 mm | 2.68 m/s, 264° | 177 W/m² | - |
| 1788233316 | 30° C | 77% | 1009.5 hPa | 0 mm | 1.79 m/s, 266° | 171 W/m² | - |
| 1788233256 | 30° C | 77% | 1009.7 hPa | 0 mm | 0.89 m/s, 203° | 178 W/m² | - |
| 1788233195 | 30° C | 78% | 1009.6 hPa | 0 mm | 1.34 m/s, 265° | 204 W/m² | - |
| 1788233134 | 30° C | 77% | 1009.6 hPa | 0 mm | 1.34 m/s, 1° | 272 W/m² | - |
| 1788233073 | 30° C | 77% | 1009.6 hPa | 0 mm | 1.34 m/s, 239° | 746 W/m² | - |
| 1788233012 | 30° C | 76% | 1009.5 hPa | 0 mm | 3.13 m/s, 227° | 377 W/m² | - |
| 1788232951 | 29.44° C | 77% | 1009.6 hPa | 0 mm | 2.24 m/s, 304° | 867 W/m² | - |
| 1788232889 | 29.44° C | 78% | 1009.6 hPa | 0 mm | 0.89 m/s, 288° | 348 W/m² | - |
| 1788232829 | 29.44° C | 78% | 1009.5 hPa | 0 mm | 0.89 m/s, 201° | 787 W/m² | - |
* Rain latest hour (hover to see other rain measurements)
** Current wind speed in m/s (hover to see current wind gust speed)